DW1256 Weather Reports


Display with metric or nautical units.
time (UTC)temp
F
wind
direction
speed
MPH
gust
MPH
rain 1hr
in
rain 24hr
in
rain mn
in
humidity
%
barometer
mb
20260503201411 64 244 5.0 14.0 0.00 0.00 0.00 33 1008.9
20260503200912 65 131 6.0 18.0 0.00 0.00 0.00 34 1009.1
20260503200409 64 196 6.0 18.0 0.00 0.00 0.00 33 1009.2
20260503195909 64 160 6.0 18.0 0.00 0.00 0.00 34 1009.3
20260503195407 63 88 6.0 18.0 0.00 0.00 0.00 32 1009.3
20260503194908 64 171 6.0 21.0 0.00 0.00 0.00 31 1009.3
20260503194408 63 215 6.0 21.0 0.00 0.00 0.00 33 1009.6
20260503193909 63 234 6.0 19.0 0.00 0.00 0.00 32 1009.6
20260503192906 63 211 6.0 13.0 0.00 0.00 0.00 31 1009.9
20260503192407 63 182 6.0 19.0 0.00 0.00 0.00 31 1010.1
20260503191908 64 157 6.0 19.0 0.00 0.00 0.00 30 1010.2
20260503191402 64 256 6.0 15.0 0.00 0.00 0.00 30 1010.3
20260503190855 64 226 5.0 15.0 0.00 0.00 0.00 31 1010.2
20260503190350 63 137 5.0 19.0 0.00 0.00 0.00 32 1010.4
20260503185844 62 213 6.0 19.0 0.00 0.00 0.00 31 1010.7
20260503185342 62 198 5.0 12.0 0.00 0.00 0.00 31 1010.5
20260503184843 62 144 5.0 13.0 0.00 0.00 0.00 32 1010.8
20260503184342 62 271 6.0 13.0 0.00 0.00 0.00 31 1011.0
20260503183341 63 210 5.0 13.0 0.00 0.00 0.00 31 1011.1
20260503182841 64 269 5.0 13.0 0.00 0.00 0.00 34 1011.4
20260503182341 62 219 4.0 12.0 0.00 0.00 0.00 34 1011.4
20260503181839 61 329 4.0 13.0 0.00 0.00 0.00 35 1011.6
20260503181337 60 244 4.0 13.0 0.00 0.00 0.00 34 1011.9
20260503180837 60 241 4.0 11.0 0.00 0.00 0.00 35 1012.1
20260503174837 59 254 4.0 10.0 0.00 0.00 0.00 36 1012.6
20260503173837 59 196 5.0 12.0 0.00 0.00 0.00 35 1012.5
20260503173337 60 224 4.0 10.0 0.00 0.00 0.00 34 1012.5
20260503172838 60 227 3.0 9.0 0.00 0.00 0.00 36 1012.6
20260503172337 60 215 4.0 14.0 0.00 0.00 0.00 35 1012.6
20260503171838 60 210 4.0 14.0 0.00 0.00 0.00 34 1012.6
20260503170834 60 221 3.0 9.0 0.00 0.00 0.00 36 1012.7
20260503150825 56 200 4.0 9.0 0.00 0.00 0.00 44 1014.2
20260503150327 56 301 4.0 10.0 0.00 0.00 0.00 44 1014.3
20260503131316 51 219 4.0 12.0 0.00 0.00 0.00 47 1015.4
20260503130813 51 214 4.0 11.0 0.00 0.00 0.00 49 1015.4
20260503110804 41 161 1.0 6.0 0.00 0.00 0.00 56 1014.9
20260503110304 41 225 1.0 5.0 0.00 0.00 0.00 55 1015.0
20260503100228 41 158 2.0 7.0 0.00 0.00 0.00 54 1015.1
20260503090139 41 182 1.0 6.0 0.00 0.00 0.00 52 1015.1
20260503081634 41 261 1.0 5.0 0.00 0.00 0.00 52 1015.2
20260503081136 41 215 2.0 6.0 0.00 0.00 0.00 52 1015.2
20260503080636 41 219 2.0 6.0 0.00 0.00 0.00 52 1015.3
20260503080130 41 181 1.0 6.0 0.00 0.00 0.00 52 1015.4
20260503072548 41 202 1.0 4.0 0.00 0.00 0.00 53 1015.4
20260503072042 41 311 1.0 4.0 0.00 0.00 0.00 53 1015.4
20260503071536 41 221 1.0 3.0 0.00 0.00 0.00 53 1015.4
20260503071030 41 204 0.0 3.0 0.00 0.00 0.00 53 1015.4
20260503054346 42 319 0.0 0.0 0.00 0.00 0.00 51 1016.1
20260503053840 42 319 0.0 0.0 0.00 0.00 0.00 50 1016.2
20260503052827 42 319 0.0 0.0 0.00 0.00 0.00 50 1016.3
20260503052320 42 319 0.0 0.0 0.00 0.00 0.00 50 1016.4
20260503051815 42 319 0.0 2.0 0.00 0.00 0.00 50 1016.3
20260503051309 42 319 0.0 2.0 0.00 0.00 0.00 49 1016.4
20260503050802 42 319 0.0 2.0 0.00 0.00 0.00 49 1016.4
20260503050257 42 319 0.0 1.0 0.00 0.00 0.00 49 1016.4
20260503045750 42 319 0.0 2.0 0.00 0.00 0.00 49 1016.4
20260503044232 42 319 0.0 1.0 0.00 0.00 0.00 49 1016.3
20260503043726 42 319 0.0 1.0 0.00 0.00 0.00 49 1016.3
20260503042713 42 319 0.0 3.0 0.00 0.00 0.00 49 1016.3
20260503041156 42 323 0.0 0.0 0.00 0.00 0.00 48 1016.3
20260503040143 42 323 0.0 0.0 0.00 0.00 0.00 49 1016.3
20260503035132 43 323 0.0 0.0 0.00 0.00 0.00 49 1016.4
20260503034119 43 323 0.0 0.0 0.00 0.00 0.00 50 1016.4
20260503033613 43 323 0.0 0.0 0.00 0.00 0.00 50 1016.4
20260503033107 43 323 0.0 0.0 0.00 0.00 0.00 50 1016.4
20260503032601 43 323 0.0 0.0 0.00 0.00 0.00 50 1016.4
20260503032055 43 323 0.0 0.0 0.00 0.00 0.00 50 1016.5
20260503031044 44 323 0.0 0.0 0.00 0.00 0.00 50 1016.6
20260503030538 44 323 0.0 0.0 0.00 0.00 0.00 50 1016.6
20260503025525 44 323 0.0 0.0 0.00 0.00 0.00 48 1016.6
20260503025019 45 323 0.0 0.0 0.00 0.00 0.00 48 1016.6
20260503024514 45 323 0.0 0.0 0.00 0.00 0.00 48 1016.6
20260503023501 46 323 0.0 0.0 0.00 0.00 0.00 47 1016.5
20260503022955 46 323 0.0 0.0 0.00 0.00 0.00 46 1016.5
20260503022449 46 323 0.0 0.0 0.00 0.00 0.00 45 1016.5
20260503021943 46 323 0.0 0.0 0.00 0.00 0.00 44 1016.4
20260503015919 48 323 0.0 0.0 0.00 0.00 0.00 41 1016.3
20260503015413 48 323 0.0 0.0 0.00 0.00 0.00 39 1016.3
20260503014907 48 323 0.0 0.0 0.00 0.00 0.00 37 1016.2
20260503014401 49 323 0.0 0.0 0.00 0.00 0.00 37 1016.2
20260503012848 50 323 0.0 0.0 0.00 0.00 0.00 35 1016.2
20260503012334 50 323 0.0 0.0 0.00 0.00 0.00 35 1016.1
20260503011828 50 323 0.0 0.0 0.00 0.00 0.00 35 1016.2
20260503011321 51 323 0.0 0.0 0.00 0.00 0.00 34 1016.1
20260503010309 51 323 0.0 0.0 0.00 0.00 0.00 34 1015.9
20260503005257 52 323 0.0 0.0 0.00 0.00 0.00 33 1016.1
20260503004752 53 323 0.0 0.0 0.00 0.00 0.00 34 1015.9
20260503004246 53 323 0.0 0.0 0.00 0.00 0.00 36 1016.1
20260503003739 53 323 0.0 0.0 0.00 0.00 0.00 36 1015.9
20260503003233 54 323 0.0 0.0 0.00 0.00 0.00 35 1015.9
20260503002221 54 323 0.0 1.0 0.00 0.00 0.00 28 1015.9
20260503001210 54 323 1.0 3.0 0.00 0.00 0.00 28 1016.1
20260503000704 54 323 1.0 3.0 0.00 0.00 0.00 27 1016.1
20260503000158 54 323 1.0 3.0 0.00 0.00 0.00 28 1015.9
20260502235652 54 323 2.0 4.0 0.00 0.00 0.00 27 1015.9
20260502235145 54 323 2.0 7.0 0.00 0.00 0.00 27 1016.1
20260502234639 54 309 2.0 7.0 0.00 0.00 0.00 27 1016.1
20260502234133 55 301 2.0 6.0 0.00 0.00 0.00 27 1016.1
20260502233627 55 306 4.0 9.0 0.00 0.00 0.00 26 1016.1
20260502233121 55 290 4.0 11.0 0.00 0.00 0.00 26 1016.1
20260502232616 56 284 2.0 7.0 0.00 0.00 0.00 25 1016.1
20260502232110 56 308 2.0 9.0 0.00 0.00 0.00 26 1016.1
20260502231604 56 341 3.0 9.0 0.00 0.00 0.00 26 1016.2
20260502231057 55 323 3.0 6.0 0.00 0.00 0.00 26 1016.2
20260502230045 55 350 3.0 9.0 0.00 0.00 0.00 25 1016.2
20260502225540 55 348 4.0 11.0 0.00 0.00 0.00 25 1016.2
20260502225033 55 355 4.0 11.0 0.00 0.00 0.00 24 1016.2
20260502224527 55 355 3.0 8.0 0.00 0.00 0.00 26 1016.2
20260502223515 55 342 2.0 6.0 0.00 0.00 0.00 26 1016.2
20260502223009 55 0 3.0 6.0 0.00 0.00 0.00 25 1016.2
20260502222504 55 331 4.0 12.0 0.00 0.00 0.00 25 1016.2
20260502221957 55 28 4.0 12.0 0.00 0.00 0.00 23 1016.2
20260502221451 56 0 3.0 9.0 0.00 0.00 0.00 25 1016.3
20260502220439 58 0 3.0 8.0 0.00 0.00 0.00 23 1016.2
20260502215933 56 0 3.0 11.0 0.00 0.00 0.00 23 1016.2
20260502215428 58 0 2.0 11.0 0.00 0.00 0.00 21 1016.2
20260502214922 55 166 3.0 9.0 0.00 0.00 0.00 22 1016.2
20260502214415 55 69 4.0 9.0 0.00 0.00 0.00 24 1016.3
20260502213909 55 34 4.0 9.0 0.00 0.00 0.00 25 1016.3
20260502213403 55 355 4.0 10.0 0.00 0.00 0.00 23 1016.3
20260502212858 57 0 4.0 10.0 0.00 0.00 0.00 24 1016.3
20260502210833 55 346 3.0 9.0 0.00 0.00 0.00 26 1016.3
20260502205821 56 13 4.0 12.0 0.00 0.00 0.00 26 1016.5
20260502205315 55 319 3.0 7.0 0.00 0.00 0.00 28 1016.5
20260502204810 54 287 4.0 8.0 0.00 0.00 0.00 23 1016.6
20260502204304 54 322 5.0 14.0 0.00 0.00 0.00 27 1016.6
20260502203759 54 261 5.0 14.0 0.00 0.00 0.00 24 1016.6
20260502203256 55 26 4.0 14.0 0.00 0.00 0.00 25 1016.6
20260502202756 54 30 4.0 13.0 0.00 0.00 0.00 28 1016.7
20260502202256 55 346 3.0 9.0 0.00 0.00 0.00 26 1016.7